Location: Auckland
(36.8670°S, 174.7670°E)
Time: 17:42:08
(UTC+12:00)

A-11 Canister half - Pass Details

Date: 21 July 2019
Orbit: 1526 x 1683 km, 47.3° (Epoch: 21 August)

Event Time Altitude Azimuth Distance (km) Brightness Sun altitude
Rises 07:19:49 0° 334° (NNW) 4,663 11.5 -2.4°
Reaches altitude 10° 07:23:02 10° 340° (NNW) 3,690 11.1 -1.8°
Maximum altitude 07:31:36 42° 47° (NE) 2,079 10.5 -0.2°
Drops below altitude 10° 07:40:22 10° 114° (ESE) 3,792 11.7 1.3°
Sets 07:43:42 0° 120° (ESE) 4,802 12.1 1.9°
